| time (UTC) | temp C | wind direction | speed KPH | gust KPH | rain 1hr cm | rain 24hr cm | rain mn cm | humidity % | barometer mb |
| 20260507160041 | 15 | 276 | 11.3 | 22.5 | 0.00 | 0.51 | 0.00 | 34 | 1020.8 |
| 20260507154538 | 14 | 240 | 14.5 | 20.9 | 0.00 | 0.51 | 0.00 | 34 | 1020.9 |
| 20260507153032 | 13 | 269 | 12.9 | 22.5 | 0.00 | 0.51 | 0.00 | 36 | 1021.1 |
| 20260507151538 | 13 | 265 | 9.7 | 19.3 | 0.00 | 0.51 | 0.00 | 38 | 1021.2 |
| 20260507150027 | 13 | 304 | 9.7 | 19.3 | 0.00 | 0.51 | 0.00 | 42 | 1021.4 |
| 20260507144521 | 12 | 240 | 6.4 | 17.7 | 0.00 | 0.51 | 0.00 | 42 | 1021.6 |
| 20260507143017 | 11 | 291 | 4.8 | 16.1 | 0.00 | 0.51 | 0.00 | 51 | 1021.7 |
| 20260507141616 | 10 | 281 | 4.8 | 9.7 | 0.00 | 0.51 | 0.00 | 52 | 1021.8 |
| 20260507140016 | 9 | 271 | 4.8 | 16.1 | 0.00 | 0.51 | 0.00 | 52 | 1022.1 |
| 20260507134521 | 8 | 254 | 6.4 | 16.1 | 0.00 | 0.51 | 0.00 | 52 | 1022.0 |
| 20260507133004 | 7 | 261 | 4.8 | 12.9 | 0.00 | 0.51 | 0.00 | 54 | 1022.0 |
| 20260507131622 | 6 | 235 | 9.7 | 16.1 | 0.00 | 0.51 | 0.00 | 57 | 1021.8 |
| 20260507130056 | 5 | 232 | 12.9 | 16.1 | 0.00 | 0.51 | 0.00 | 58 | 1021.9 |
| 20260507124554 | 3 | 227 | 11.3 | 16.1 | 0.00 | 0.51 | 0.00 | 60 | 1021.8 |
| 20260507123047 | 1 | 215 | 8.0 | 12.9 | 0.00 | 0.51 | 0.00 | 69 | 1021.6 |
| 20260507121546 | 0 | 216 | 8.0 | 12.9 | 0.00 | 0.51 | 0.00 | 69 | 1021.6 |
| 20260507120044 | 2 | 209 | 11.3 | 16.1 | 0.00 | 0.51 | 0.00 | 61 | 1021.6 |
| 20260507114543 | 2 | 227 | 11.3 | 16.1 | 0.00 | 0.51 | 0.00 | 62 | 1021.6 |
| 20260507113042 | 2 | 236 | 11.3 | 14.5 | 0.00 | 0.51 | 0.00 | 61 | 1021.7 |
| 20260507111542 | 1 | 236 | 9.7 | 12.9 | 0.00 | 0.51 | 0.00 | 62 | 1021.6 |
| 20260507110052 | 1 | 229 | 9.7 | 14.5 | 0.00 | 0.51 | 0.00 | 63 | 1021.6 |
| 20260507104537 | 1 | 221 | 9.7 | 14.5 | 0.00 | 0.51 | 0.00 | 63 | 1021.9 |
| 20260507103035 | 1 | 221 | 11.3 | 16.1 | 0.00 | 0.51 | 0.00 | 64 | 1022.1 |
| 20260507101541 | 1 | 228 | 12.9 | 16.1 | 0.00 | 0.51 | 0.00 | 65 | 1022.2 |
| 20260507100034 | 1 | 232 | 14.5 | 17.7 | 0.00 | 0.51 | 0.00 | 68 | 1022.3 |
| 20260507094527 | 1 | 231 | 14.5 | 17.7 | 0.00 | 0.51 | 0.00 | 70 | 1022.4 |
| 20260507093025 | 1 | 230 | 12.9 | 19.3 | 0.00 | 0.51 | 0.00 | 71 | 1022.3 |
| 20260507091523 | 1 | 235 | 14.5 | 19.3 | 0.00 | 0.51 | 0.00 | 74 | 1022.5 |
| 20260507090028 | 0 | 222 | 11.3 | 16.1 | 0.00 | 0.51 | 0.00 | 76 | 1022.7 |
| 20260507084529 | 0 | 218 | 14.5 | 19.3 | 0.00 | 0.51 | 0.00 | 83 | 1022.7 |
| 20260507083013 | 0 | 205 | 16.1 | 24.1 | 0.00 | 0.51 | 0.00 | 87 | 1022.7 |
| 20260507081514 | 0 | 213 | 17.7 | 22.5 | 0.00 | 0.51 | 0.00 | 89 | 1022.9 |
| 20260507080010 | 0 | 214 | 20.9 | 27.4 | 0.00 | 0.51 | 0.00 | 90 | 1023.0 |
| 20260507074522 | 0 | 209 | 20.9 | 29.0 | 0.00 | 0.51 | 0.00 | 89 | 1023.1 |
| 20260507073004 | 0 | 221 | 24.1 | 33.8 | 0.00 | 0.51 | 0.00 | 90 | 1023.2 |
| 20260507071503 | 0 | 231 | 24.1 | 33.8 | 0.00 | 0.51 | 0.00 | 90 | 1023.3 |
| 20260507070108 | 0 | 225 | 25.7 | 33.8 | 0.00 | 0.51 | 0.00 | 91 | 1023.4 |
| 20260507070003 | 0 | 220 | 25.7 | 33.8 | 0.00 | 0.51 | 0.00 | 91 | 1023.5 |
| 20260507064600 | 0 | 227 | 22.5 | 37.0 | 0.00 | 0.51 | 0.00 | 91 | 1023.6 |
| 20260507063058 | 0 | 226 | 25.7 | 37.0 | 0.00 | 0.51 | 0.00 | 91 | 1023.6 |
| 20260507061557 | 0 | 223 | 25.7 | 35.4 | 0.00 | 0.51 | 0.00 | 91 | 1023.7 |
| 20260507060104 | 0 | 221 | 24.1 | 38.6 | 0.00 | 0.51 | 0.00 | 91 | 1023.6 |
| 20260507054556 | 0 | 218 | 24.1 | 35.4 | 0.00 | 0.51 | 0.51 | 92 | 1023.5 |
| 20260507053054 | 0 | 219 | 27.4 | 38.6 | 0.00 | 0.51 | 0.51 | 92 | 1023.4 |
| 20260507051551 | 0 | 217 | 20.9 | 33.8 | 0.00 | 0.51 | 0.51 | 92 | 1023.7 |
| 20260507050050 | 0 | 205 | 22.5 | 32.2 | 0.00 | 0.51 | 0.51 | 93 | 1023.6 |
| 20260507044550 | 0 | 220 | 20.9 | 32.2 | 0.00 | 0.53 | 0.51 | 93 | 1023.6 |
| 20260507043050 | 0 | 205 | 20.9 | 27.4 | 0.00 | 0.53 | 0.51 | 93 | 1023.5 |
| 20260507041549 | 0 | 196 | 20.9 | 27.4 | 0.00 | 0.53 | 0.51 | 93 | 1023.6 |
| 20260507040047 | 0 | 201 | 19.3 | 35.4 | 0.00 | 0.53 | 0.51 | 92 | 1023.7 |
| 20260507034647 | 0 | 205 | 17.7 | 24.1 | 0.00 | 0.53 | 0.51 | 92 | 1023.7 |
| 20260507033047 | 0 | 199 | 16.1 | 24.1 | 0.00 | 0.53 | 0.51 | 92 | 1023.7 |
| 20260507031545 | 0 | 204 | 16.1 | 22.5 | 0.00 | 0.53 | 0.51 | 90 | 1023.7 |
| 20260507030044 | 0 | 190 | 14.5 | 20.9 | 0.00 | 0.53 | 0.51 | 90 | 1023.7 |
| 20260507024553 | 0 | 166 | 9.7 | 12.9 | 0.00 | 0.56 | 0.51 | 88 | 1023.6 |
| 20260507023043 | 0 | 169 | 9.7 | 14.5 | 0.00 | 0.56 | 0.51 | 87 | 1023.5 |
| 20260507021548 | 0 | 145 | 3.2 | 8.0 | 0.00 | 0.56 | 0.51 | 87 | 1023.6 |
| 20260507020051 | 1 | 149 | 4.8 | 8.0 | 0.00 | 0.56 | 0.51 | 85 | 1023.4 |
| 20260507014544 | 1 | 158 | 6.4 | 11.3 | 0.00 | 0.58 | 0.51 | 81 | 1023.5 |
| 20260507013042 | 2 | 158 | 6.4 | 9.7 | 0.00 | 0.58 | 0.51 | 78 | 1023.5 |
| 20260507011545 | 2 | 156 | 8.0 | 9.7 | 0.00 | 0.58 | 0.51 | 77 | 1023.6 |
| 20260507010049 | 3 | 171 | 4.8 | 9.7 | 0.00 | 0.58 | 0.51 | 75 | 1023.6 |
| 20260507004640 | 3 | 215 | 3.2 | 12.9 | 0.00 | 0.61 | 0.51 | 74 | 1023.5 |
| 20260507003040 | 3 | 214 | 0.0 | 6.4 | 0.00 | 0.61 | 0.51 | 75 | 1023.4 |
| 20260507001546 | 3 | 228 | 0.0 | 4.8 | 0.00 | 0.61 | 0.51 | 76 | 1023.5 |
| 20260507000034 | 3 | 259 | 0.0 | 8.0 | 0.00 | 0.61 | 0.51 | 75 | 1023.7 |
| 20260506234531 | 2 | 265 | 3.2 | 6.4 | 0.00 | 0.61 | 0.51 | 78 | 1023.6 |
| 20260506233028 | 2 | 315 | 4.8 | 9.7 | 0.00 | 0.61 | 0.51 | 83 | 1023.9 |
| 20260506231527 | 1 | 12 | 3.2 | 12.9 | 0.00 | 0.61 | 0.51 | 84 | 1024.0 |
| 20260506230027 | 1 | 216 | 3.2 | 11.3 | 0.00 | 0.61 | 0.51 | 85 | 1024.1 |
| 20260506224523 | 1 | 244 | 1.6 | 14.5 | 0.00 | 0.61 | 0.51 | 88 | 1023.9 |
| 20260506223021 | 0 | 265 | 4.8 | 14.5 | 0.00 | 0.61 | 0.51 | 87 | 1024.0 |
| 20260506221520 | 0 | 288 | 6.4 | 16.1 | 0.00 | 0.61 | 0.51 | 88 | 1024.1 |
| 20260506220020 | 1 | 30 | 9.7 | 16.1 | 0.00 | 0.61 | 0.51 | 91 | 1024.0 |
| 20260506214519 | 1 | 350 | 8.0 | 14.5 | 0.03 | 0.61 | 0.51 | 91 | 1023.9 |
| 20260506213018 | 0 | 16 | 9.7 | 16.1 | 0.05 | 0.61 | 0.51 | 91 | 1024.0 |
| 20260506211517 | 1 | 15 | 8.0 | 16.1 | 0.08 | 0.61 | 0.51 | 92 | 1024.0 |
| 20260506210015 | 0 | 360 | 9.7 | 16.1 | 0.10 | 0.61 | 0.51 | 94 | 1024.2 |
| 20260506204513 | 0 | 360 | 14.5 | 19.3 | 0.08 | 0.61 | 0.48 | 94 | 1024.5 |
| 20260506203013 | 0 | 14 | 17.7 | 22.5 | 0.10 | 0.58 | 0.46 | 94 | 1024.5 |
| 20260506201512 | 0 | 5 | 16.1 | 22.5 | 0.10 | 0.56 | 0.43 | 95 | 1024.5 |
| 20260506200012 | 0 | 344 | 16.1 | 24.1 | 0.10 | 0.53 | 0.41 | 95 | 1024.5 |
| 20260506194508 | 0 | 16 | 17.7 | 24.1 | 0.15 | 0.53 | 0.41 | 94 | 1024.3 |
| 20260506193007 | 0 | 355 | 17.7 | 24.1 | 0.15 | 0.48 | 0.36 | 95 | 1024.3 |
| 20260506191506 | 0 | 5 | 17.7 | 22.5 | 0.15 | 0.46 | 0.33 | 95 | 1024.3 |
| 20260506190006 | 0 | 360 | 16.1 | 20.9 | 0.18 | 0.43 | 0.30 | 94 | 1024.4 |
| 20260506184516 | 0 | 16 | 14.5 | 20.9 | 0.15 | 0.38 | 0.25 | 95 | 1024.4 |
| 20260506183006 | 0 | 24 | 17.7 | 24.1 | 0.15 | 0.33 | 0.20 | 95 | 1024.5 |
| 20260506181503 | 0 | 16 | 19.3 | 25.7 | 0.13 | 0.30 | 0.18 | 95 | 1024.4 |
| 20260506180006 | 0 | 19 | 16.1 | 22.5 | 0.10 | 0.25 | 0.13 | 95 | 1024.4 |
| 20260506174607 | 0 | 5 | 17.7 | 22.5 | 0.08 | 0.23 | 0.10 | 95 | 1024.2 |
| 20260506173127 | 0 | 5 | 14.5 | 19.3 | 0.03 | 0.18 | 0.05 | 95 | 1024.0 |
| 20260506171600 | 0 | 12 | 9.7 | 16.1 | 0.03 | 0.18 | 0.05 | 96 | 1024.1 |
| 20260506170055 | 0 | 26 | 11.3 | 16.1 | 0.03 | 0.15 | 0.03 | 96 | 1023.9 |
| 20260506164554 | 0 | 9 | 14.5 | 19.3 | 0.03 | 0.18 | 0.03 | 96 | 1023.8 |
| 20260506163055 | 0 | 19 | 12.9 | 19.3 | 0.03 | 0.18 | 0.03 | 96 | 1023.6 |
| 20260506161600 | 0 | 355 | 11.3 | 16.1 | 0.03 | 0.18 | 0.03 | 96 | 1023.5 |
| 20260506160050 | 0 | 17 | 11.3 | 17.7 | 0.00 | 0.15 | 0.00 | 97 | 1023.3 |